SCP
0 0 0 0 0 0 0 0 0 0 0 0 0 -0 -0 -0 0 -0 0 0 -0 0 0 0 0 0 0 -0 -0 -0 0 0 0 0 0 0 0 0 0 0 0 0 0 0
0 0 0 0 0 0 0 0 0 -0 0 -0 -0 -0 -0 -0 0 0 -0 0 -0 -0 0 0 0 0 0 -0 -0 -0 0 0 0 0 0 0 0 0 0 0 0 0 0 0
0 0 0 0 0 0 0 -0 0 -0 0 -0 -0 0 0 0 0 0 -0 0 0 -0 -0 0 0 0 -0 0 0 0 0 0 0 0 0 0 0 0 0 0 0 0 0 0
0 0 0 0 0 0 0 -0 -0 -0 -0 0 -0 -0 0 0 0 0 0 0 -0 -0 -0 0 0 0 0 -0 0 0 0 0 0 0 0 0 0 0 0 0 0 0 0 0
0 0 0 0 0 -0 -0 -0 0 0 -0 -0 -0 0 0 0 0 0 0 0 0 0 0 0 0 0 0 0 0 -0 -0 0 0 0 0 -0 0 0 0 0 0 0 0 0
0 0 0 0 0 0 -0 -0 0 0 0 0 0 -0 0 -0 0 0 0 0 -0 0 0 0 0 0 0 0 0 -0 0 0 0 0 0 0 0 0 0 0 0 0 0 0
0 0 0 0 0 0 -0 -0 -0 0 0 0 0 -0 0 -0 0 0 0 -0 0 0 0 0 0 0 0 0 0 0 0 0 0 0 0 0 0 0 0 0 0 0 0 0
0 0 0 0 0 -0 -0 -0 0 0 -0 0 0 -0 0 0 -0 -0 -0 -0 -0 0 0 0 0 0 0 0 0 0 0 0 0 0 0 0 0 0 0 0 0 0 0 0
-0 -0 0 0 0 -0 -0 -0 0 -0 0 -0 0 -0 0 0 0 0 0 0 0 -0 0 0 0 0 0 0 0 0 0 0 0 0 0 0 0 0 0 0 0 0 0 0
-0 -0 0 0 -0 -0 -0 -0 -0 0 0 0 0 0 0 0 0 0 0 0 0 0 -0 0 0 0 0 0 0 0 0 0 0 0 0 0 0 0 0 0 0 0 0 0
-0 -0 -0 0 -0 -0 -0 0 -0 -0 -0 -0 -0 0 0 0 0 0 0 0 0 0 0 0 0 0 0 0 0 0 0 0 0 0 0 0 0 0 0 0 0 0 0 0
0 0 -0 -0 -0 -0 -0 -0 -0 0 0 0 0 -0 -0 0 0 0 0 0 0 0 0 0 0 0 0 0 0 0 0 0 0 0 0 0 0 0 0 0 0 0 0 0
0 0 -0 -0 -0 -0 -0 -0 -0 -0 0 0 0 -0 -0 -0 -0 0 0 0 0 0 0 0 0 0 0 0 0 0 0 0 0 0 0 0 0 0 0 0 0 0 0 0
0 -0 -0 -0 -0 -0 -0 -0 -0 0 0 0 0 -0 0 0 0 0 0 0 0 0 0 0 0 0 0 0 0 0 0 0 0 0 0 0 0 0 0 0 0 0 0 0
0 -0 -0 -0 -0 -0 -0 -0 -0 0 0 0 0 0 -0 -0 0 0 0 0 0 0 0 0 0 0 0 0 0 0 0 0 0 0 0 0 0 0 0 0 0 0 0 0
-0 -0 -0 -0 -0 -0 -0 0 -0 -0 0 0 0 0 0 0 0 0 0 0 0 0 0 0 0 0 0 0 0 0 0 0 0 0 0 0 0 0 0 0 0 0 0 0
-0 -0 -0 -0 -0 0 0 0 -0 -0 -0 0 0 0 0 -0 0 0 0 0 0 0 0 0 0 0 0 0 0 0 0 0 0 0 0 0 0 0 0 0 0 0 0 0
-0 -0 -0 0 -0 -0 -0 -0 0 -0 0 0 0 0 0 0 0 0 0 0 0 0 0 0 0 0 0 0 0 0 0 0 0 0 0 0 0 0 0 0 0 0 0 0
-0 -0 -0 0 -0 -0 0 -0 -0 0 0 0 0 0 0 0 0 0 0 0 0 0 0 0 0 0 0 0 0 0 0 0 0 0 0 0 0 0 0 0 0 0 0 0
-0 0 0 0 -0 -0 -0 0 0 0 0 0 0 0 0 0 0 0 0 0 0 0 0 0 0 0 0 0 0 0 0 0 0 0 0 0 0 0 0 0 0 0 0 0
0 0 0 0 0 0 -0 0 0 -0 0 0 0 0 0 0 0 0 0 0 0 0 0 0 0 0 0 0 0 0 0 0 0 0 0 0 0 0 0 0 0 0 0 0
0 0 0 0 0 0 -0 -0 -0 0 0 0 0 0 0 0 0 0 0 0 0 0 0 0 0 0 0 0 0 0 0 0 0 0 0 0 0 0 0 0 0 0 0 0
0 0 0 0 0 0 0 -0 -0 0 0 -0 -0 0 0 0 0 0 0 0 0 0 0 0 0 0 0 0 0 0 0 0 0 0 0 0 0 0 0 -0 0 0 0 0
0 0 0 0 -0 0 -0 0 0 -0 0 0 -0 -0 0 0 0 0 0 0 0 0 0 0 0 0 -0 -0 0 0 0 0 0 0 0 0 0 -0 -0 -0 0 0 0 -0
0 -0 -0 0 0 0 -0 -0 0 0 -0 -0 -0 -0 0 0 0 0 0 0 0 0 0 0 0 -0 -0 0 0 0 0 0 0 0 0 -0 0 0 0 -0 0 0 0 0
0 0 0 0 0 0 0 0 0 0 -0 0 0 0 0 0 0 0 0 0 0 0 0 0 -0 0 0 0 0 0 0 0 0 0 -0 0 0 0 0 -0 0 0 0 0
0 0 0 -0 0 0 0 0 0 0 0 0 0 0 0 0 0 0 0 0 0 0 0 0 0 0 0 0 0 -0 0 0 -0 -0 0 0 0 0 -0 -0 0 0 0 0
Wind_Speed_500mb
67 65 61 58 61 66 47 27 11 6 22 5 6 24 42 59 48 45 38 9 17 25 39 46 48 45 30 67 45 48 23 15 34 47 35 34 37 33 40 22 32 21 13 12
63 62 56 55 55 55 54 27 28 13 10 5 4 20 45 48 52 40 15 11 13 17 5 7 39 44 42 73 54 44 19 12 26 29 7 18 26 37 30 33 16 21 19 17
60 52 55 60 55 53 40 16 9 9 3 13 7 14 25 25 41 35 21 4 7 3 11 20 29 46 46 68 49 23 17 4 33 21 34 34 40 33 38 35 23 17 14 16
55 48 59 59 52 50 21 7 8 15 13 14 27 23 16 29 18 17 25 5 5 8 10 35 22 49 43 60 49 26 20 13 5 9 23 39 44 22 29 28 35 25 15 15
47 50 54 55 52 48 15 21 9 16 36 32 32 14 8 16 16 9 8 11 13 14 7 23 23 35 46 50 53 47 36 25 39 11 33 31 34 40 36 32 26 30 9 9
46 49 50 50 53 46 20 30 30 11 28 23 18 13 14 23 10 16 3 26 16 16 12 18 17 21 15 33 40 38 26 16 19 14 16 16 11 19 18 19 16 16 19 16
45 45 46 46 47 46 31 24 35 10 10 17 26 29 28 38 28 18 19 14 15 14 18 14 60 60 41 26 19 17 21 26 11 10 20 18 18 10 7 22 16 15 13 14
43 40 40 42 44 43 32 19 23 13 9 21 25 36 31 34 35 22 27 26 24 21 21 8 15 13 15 24 21 5 24 11 10 10 17 22 14 8 10 18 21 9 16 13
40 35 37 41 44 42 32 15 28 21 12 18 32 24 30 11 11 12 16 17 2 14 8 12 11 7 10 6 9 12 5 12 6 15 9 8 23 16 7 1 20 11 14 18
38 33 37 42 42 41 35 17 28 22 15 19 40 13 16 20 8 5 11 23 15 16 12 17 9 15 19 9 11 31 18 12 12 15 4 16 18 10 9 14 12 19 8 10
38 33 33 37 39 40 33 23 31 26 15 16 25 23 26 29 38 11 23 8 18 15 16 15 11 14 7 11 16 13 9 8 10 9 5 6 18 10 9 18 20 17 8 7
38 35 32 34 36 41 34 28 26 23 8 13 13 17 22 19 22 28 23 16 19 17 9 9 7 12 11 19 8 6 7 8 7 7 10 15 26 26 21 8 18 9 5 6
38 34 34 37 38 37 32 23 30 18 18 8 10 20 15 20 23 23 15 19 25 19 17 10 9 12 11 9 16 10 7 5 5 12 18 18 22 14 13 8 4 5 4 12
36 37 35 38 40 33 23 19 25 16 12 6 16 18 17 15 16 18 16 15 14 11 17 11 8 8 16 15 10 13 14 9 13 18 17 24 20 20 8 7 6 10 14 15
38 38 36 37 37 26 10 11 19 17 8 9 14 7 25 18 13 15 17 19 19 15 12 10 9 12 6 10 3 18 7 11 6 7 10 9 18 6 4 9 10 11 10 12
38 37 35 32 28 12 10 3 10 16 18 7 6 5 19 23 16 17 17 17 21 17 13 9 18 10 14 3 16 13 14 12 12 13 6 5 6 6 6 7 8 8 7 5
38 34 25 22 15 17 5 5 11 15 10 6 6 2 11 17 11 8 11 12 15 15 13 17 15 13 13 7 18 14 13 9 6 3 2 2 16 11 5 6 6 8 8 10
37 23 18 11 10 11 8 11 13 10 7 5 5 3 7 15 11 6 10 9 12 16 11 6 11 5 5 9 10 15 8 9 12 14 7 4 3 3 1 5 9 15 16 16
27 20 13 9 8 7 10 15 6 7 5 5 7 4 4 7 6 6 7 8 4 6 4 5 6 3 6 6 3 3 4 6 8 13 7 4 9 9 12 10 14 22 26 25
19 14 5 5 11 19 8 6 1 1 4 3 5 6 3 4 2 4 5 5 2 3 5 4 3 7 6 14 20 15 9 8 11 13 14 13 14 17 20 21 22 19 16 20
13 10 6 12 12 5 4 4 0 1 1 2 4 3 5 4 2 2 5 1 1 3 5 2 4 6 9 15 21 19 16 13 14 12 12 14 14 17 18 15 16 18 20 18
17 12 10 8 5 4 5 2 3 2 4 9 3 3 6 3 4 3 2 3 3 5 7 4 6 8 15 18 16 18 17 16 17 17 17 16 16 16 17 15 15 15 16 16
7 6 5 4 2 4 7 2 5 5 14 12 16 5 0 1 1 2 1 2 3 1 3 4 6 20 18 13 17 19 19 18 19 19 19 18 15 18 17 15 16 14 13 15
4 5 4 6 5 9 6 11 8 11 5 8 12 10 4 5 5 3 3 1 5 4 5 6 7 22 16 17 18 18 19 17 18 20 21 22 18 22 20 18 19 14 14 14
4 5 3 6 2 7 9 8 6 5 4 5 6 10 3 5 3 4 3 1 6 6 6 4 21 20 19 20 18 17 18 18 19 21 22 22 19 20 19 19 18 17 18 17
4 4 5 4 8 9 3 4 8 5 4 5 9 5 5 0 2 3 4 6 5 4 6 20 24 22 22 20 18 18 18 18 18 20 21 23 20 23 22 23 23 23 25 27
4 5 6 2 3 5 4 3 3 4 3 4 5 4 7 5 5 2 6 4 4 23 20 18 21 23 21 18 17 17 17 17 18 19 22 25 24 28 26 30 30 30 31 32
Wind_Direction_500mb
344 346 346 346 346 344 351 326 297 13 330 190 225 240 255 263 264 255 262 7 65 321 190 187 193 184 183 216 209 213 189 227 188 181 185 221 206 214 201 220 215 241 254 84
349 349 347 347 350 348 337 310 311 326 298 295 265 280 284 274 262 256 213 267 125 240 197 219 176 188 189 191 216 206 161 156 204 161 169 212 231 209 221 215 230 224 224 142
350 350 347 348 352 352 341 307 331 335 307 251 256 285 298 298 280 240 171 97 103 264 345 289 211 164 190 190 179 179 160 197 208 192 194 190 208 215 211 213 221 229 211 130
351 350 351 351 355 355 351 336 321 350 306 326 296 338 295 308 280 49 23 102 137 149 221 240 171 163 177 174 168 178 177 225 15 301 270 190 202 188 222 164 207 229 233 260
351 351 355 358 358 358 353 353 351 304 291 305 335 337 304 295 101 56 37 83 92 105 36 309 166 177 159 167 170 178 191 181 174 135 144 188 180 200 196 212 217 218 244 256
349 352 357 359 2 6 357 350 339 308 296 357 344 339 290 306 24 66 149 136 115 88 254 352 53 104 126 150 176 174 187 184 178 138 135 128 186 182 196 204 220 256 227 236
349 354 358 358 360 1 345 349 351 311 304 340 341 342 3 359 70 99 60 159 119 138 104 10 67 67 64 102 139 183 149 180 144 164 150 198 85 39 256 206 204 184 254 92
350 354 359 2 357 357 350 351 359 324 303 333 345 349 10 9 29 44 77 54 97 126 137 25 51 28 57 27 18 120 147 103 169 162 169 107 140 151 160 190 171 200 202 157
349 351 357 2 360 357 352 353 348 329 301 19 354 340 3 19 7 6 41 37 189 200 205 67 54 92 105 81 18 50 26 177 130 146 170 172 94 110 64 11 151 164 174 144
348 347 351 355 359 2 357 348 355 337 306 347 2 0 323 342 49 1 357 1 359 306 126 118 99 60 119 107 126 168 148 106 133 126 200 84 98 137 176 217 98 121 180 123
350 348 346 349 358 4 2 344 353 354 315 336 12 20 12 1 18 11 330 284 6 359 29 79 92 127 98 96 136 138 135 121 134 133 167 115 131 150 287 92 112 116 95 65
347 352 355 351 355 359 6 342 346 337 291 339 17 23 27 14 8 344 344 39 36 2 21 37 88 117 146 144 112 95 104 72 136 54 80 108 86 74 99 96 121 76 52 83
340 341 344 345 348 349 354 348 351 346 286 292 59 9 8 12 10 8 338 38 355 34 348 3 19 68 343 76 100 116 93 100 106 160 128 111 103 98 117 96 39 24 269 285
332 334 333 335 336 337 341 341 7 356 317 290 73 36 22 5 15 22 35 17 1 338 14 25 53 80 344 63 64 102 36 199 183 118 124 138 154 117 73 343 298 278 274 282
329 331 330 330 335 335 347 312 19 12 6 326 10 31 15 25 32 42 37 34 6 36 50 54 63 61 352 50 246 96 20 12 24 86 66 62 147 103 9 299 284 301 314 306
331 332 330 333 344 9 3 285 34 359 354 315 350 47 20 19 36 46 40 29 20 38 43 69 78 17 318 189 101 74 69 45 18 47 67 357 345 275 313 310 340 3 314 314
331 332 338 347 9 25 50 16 320 348 336 303 332 328 6 350 350 39 35 20 49 25 55 23 50 58 334 335 84 96 64 60 71 60 276 225 52 70 34 2 345 317 294 287
332 335 338 353 20 12 15 359 346 21 316 294 302 94 83 9 359 20 23 358 47 37 47 23 40 34 18 50 67 75 84 95 76 63 33 44 357 310 37 337 314 305 303 310
335 342 7 10 12 343 332 315 341 6 341 333 324 4 57 3 21 9 359 22 53 63 92 57 55 42 59 50 277 198 132 83 38 4 33 22 342 9 20 352 323 304 304 304
13 6 326 353 333 315 331 319 33 254 288 335 323 40 91 101 14 62 345 352 103 99 78 111 142 104 44 54 65 61 67 63 14 14 18 355 336 338 333 328 320 328 343 328
348 340 337 323 334 354 302 297 152 5 247 39 293 44 105 139 328 124 187 245 66 167 115 157 169 113 89 80 76 74 66 53 33 21 15 13 1 353 346 359 352 335 328 333
319 315 307 326 303 297 269 282 91 46 43 343 64 346 352 27 2 18 51 315 268 66 141 190 151 123 107 87 69 57 52 51 53 51 42 29 27 30 8 352 349 345 338 338
314 341 292 317 288 306 283 34 99 32 2 351 342 289 256 288 243 97 119 272 50 214 202 154 63 139 123 114 85 78 64 68 65 49 41 38 44 20 14 4 360 354 357 355
286 321 272 314 22 35 351 342 6 359 15 339 318 300 345 260 210 146 266 75 228 246 207 79 126 130 118 99 102 80 66 64 58 45 38 34 40 22 27 23 18 18 15 16
299 305 310 51 71 262 268 342 306 319 295 288 331 272 321 286 263 131 290 279 249 17 76 126 155 131 116 111 98 78 67 61 53 47 40 37 45 33 36 36 36 39 41 43
271 255 249 181 201 117 5 277 288 307 326 313 232 255 256 198 355 250 257 329 41 74 124 130 143 127 121 113 98 77 72 67 61 57 53 46 53 49 54 50 49 53 53 57
267 220 244 226 90 264 323 305 126 23 225 248 277 322 30 356 330 310 16 351 107 131 141 144 122 123 130 119 105 86 81 76 72 67 64 61 60 58 62 56 55 57 61 62
Wind_Speed_850mb
67 65 61 58 61 66 47 27 11 6 22 5 6 24 42 59 48 45 38 9 17 25 39 46 48 45 30 67 45 48 23 15 34 47 35 34 37 33 40 22 32 21 13 12
63 62 56 55 55 55 54 27 28 13 10 5 4 20 45 48 52 40 15 11 13 17 5 7 39 44 42 73 54 44 19 12 26 29 7 18 26 37 30 33 16 21 19 17
60 52 55 60 55 53 40 16 9 9 3 13 7 14 25 25 41 35 21 4 7 3 11 20 29 46 46 68 49 23 17 4 33 21 34 34 40 33 38 35 23 17 14 16
55 48 59 59 52 50 21 7 8 15 13 14 27 23 16 29 18 17 25 5 5 8 10 35 22 49 43 60 49 26 20 13 5 9 23 39 44 22 29 28 35 25 15 15
47 50 54 55 52 48 15 21 9 16 36 32 32 14 8 16 16 9 8 11 13 14 7 23 23 35 46 50 53 47 36 25 39 11 33 31 34 40 36 32 26 30 9 9
46 49 50 50 53 46 20 30 30 11 28 23 18 13 14 23 10 16 3 26 16 16 12 18 17 21 15 33 40 38 26 16 19 14 16 16 11 19 18 19 16 16 19 16
45 45 46 46 47 46 31 24 35 10 10 17 26 29 28 38 28 18 19 14 15 14 18 14 60 60 41 26 19 17 21 26 11 10 20 18 18 10 7 22 16 15 13 14
43 40 40 42 44 43 32 19 23 13 9 21 25 36 31 34 35 22 27 26 24 21 21 8 15 13 15 24 21 5 24 11 10 10 17 22 14 8 10 18 21 9 16 13
40 35 37 41 44 42 32 15 28 21 12 18 32 24 30 11 11 12 16 17 2 14 8 12 11 7 10 6 9 12 5 12 6 15 9 8 23 16 7 1 20 11 14 18
38 33 37 42 42 41 35 17 28 22 15 19 40 13 16 20 8 5 11 23 15 16 12 17 9 15 19 9 11 31 18 12 12 15 4 16 18 10 9 14 12 19 8 10
38 33 33 37 39 40 33 23 31 26 15 16 25 23 26 29 38 11 23 8 18 15 16 15 11 14 7 11 16 13 9 8 10 9 5 6 18 10 9 18 20 17 8 7
38 35 32 34 36 41 34 28 26 23 8 13 13 17 22 19 22 28 23 16 19 17 9 9 7 12 11 19 8 6 7 8 7 7 10 15 26 26 21 8 18 9 5 6
38 34 34 37 38 37 32 23 30 18 18 8 10 20 15 20 23 23 15 19 25 19 17 10 9 12 11 9 16 10 7 5 5 12 18 18 22 14 13 8 4 5 4 12
36 37 35 38 40 33 23 19 25 16 12 6 16 18 17 15 16 18 16 15 14 11 17 11 8 8 16 15 10 13 14 9 13 18 17 24 20 20 8 7 6 10 14 15
38 38 36 37 37 26 10 11 19 17 8 9 14 7 25 18 13 15 17 19 19 15 12 10 9 12 6 10 3 18 7 11 6 7 10 9 18 6 4 9 10 11 10 12
38 37 35 32 28 12 10 3 10 16 18 7 6 5 19 23 16 17 17 17 21 17 13 9 18 10 14 3 16 13 14 12 12 13 6 5 6 6 6 7 8 8 7 5
38 34 25 22 15 17 5 5 11 15 10 6 6 2 11 17 11 8 11 12 15 15 13 17 15 13 13 7 18 14 13 9 6 3 2 2 16 11 5 6 6 8 8 10
37 23 18 11 10 11 8 11 13 10 7 5 5 3 7 15 11 6 10 9 12 16 11 6 11 5 5 9 10 15 8 9 12 14 7 4 3 3 1 5 9 15 16 16
27 20 13 9 8 7 10 15 6 7 5 5 7 4 4 7 6 6 7 8 4 6 4 5 6 3 6 6 3 3 4 6 8 13 7 4 9 9 12 10 14 22 26 25
19 14 5 5 11 19 8 6 1 1 4 3 5 6 3 4 2 4 5 5 2 3 5 4 3 7 6 14 20 15 9 8 11 13 14 13 14 17 20 21 22 19 16 20
13 10 6 12 12 5 4 4 0 1 1 2 4 3 5 4 2 2 5 1 1 3 5 2 4 6 9 15 21 19 16 13 14 12 12 14 14 17 18 15 16 18 20 18
17 12 10 8 5 4 5 2 3 2 4 9 3 3 6 3 4 3 2 3 3 5 7 4 6 8 15 18 16 18 17 16 17 17 17 16 16 16 17 15 15 15 16 16
7 6 5 4 2 4 7 2 5 5 14 12 16 5 0 1 1 2 1 2 3 1 3 4 6 20 18 13 17 19 19 18 19 19 19 18 15 18 17 15 16 14 13 15
4 5 4 6 5 9 6 11 8 11 5 8 12 10 4 5 5 3 3 1 5 4 5 6 7 22 16 17 18 18 19 17 18 20 21 22 18 22 20 18 19 14 14 14
4 5 3 6 2 7 9 8 6 5 4 5 6 10 3 5 3 4 3 1 6 6 6 4 21 20 19 20 18 17 18 18 19 21 22 22 19 20 19 19 18 17 18 17
4 4 5 4 8 9 3 4 8 5 4 5 9 5 5 0 2 3 4 6 5 4 6 20 24 22 22 20 18 18 18 18 18 20 21 23 20 23 22 23 23 23 25 27
4 5 6 2 3 5 4 3 3 4 3 4 5 4 7 5 5 2 6 4 4 23 20 18 21 23 21 18 17 17 17 17 18 19 22 25 24 28 26 30 30 30 31 32
Wind_Direction_850mb
344 346 346 346 346 344 351 326 297 13 330 190 225 240 255 263 264 255 262 7 65 321 190 187 193 184 183 216 209 213 189 227 188 181 185 221 206 214 201 220 215 241 254 84
349 349 347 347 350 348 337 310 311 326 298 295 265 280 284 274 262 256 213 267 125 240 197 219 176 188 189 191 216 206 161 156 204 161 169 212 231 209 221 215 230 224 224 142
350 350 347 348 352 352 341 307 331 335 307 251 256 285 298 298 280 240 171 97 103 264 345 289 211 164 190 190 179 179 160 197 208 192 194 190 208 215 211 213 221 229 211 130
351 350 351 351 355 355 351 336 321 350 306 326 296 338 295 308 280 49 23 102 137 149 221 240 171 163 177 174 168 178 177 225 15 301 270 190 202 188 222 164 207 229 233 260
351 351 355 358 358 358 353 353 351 304 291 305 335 337 304 295 101 56 37 83 92 105 36 309 166 177 159 167 170 178 191 181 174 135 144 188 180 200 196 212 217 218 244 256
349 352 357 359 2 6 357 350 339 308 296 357 344 339 290 306 24 66 149 136 115 88 254 352 53 104 126 150 176 174 187 184 178 138 135 128 186 182 196 204 220 256 227 236
349 354 358 358 360 1 345 349 351 311 304 340 341 342 3 359 70 99 60 159 119 138 104 10 67 67 64 102 139 183 149 180 144 164 150 198 85 39 256 206 204 184 254 92
350 354 359 2 357 357 350 351 359 324 303 333 345 349 10 9 29 44 77 54 97 126 137 25 51 28 57 27 18 120 147 103 169 162 169 107 140 151 160 190 171 200 202 157
349 351 357 2 360 357 352 353 348 329 301 19 354 340 3 19 7 6 41 37 189 200 205 67 54 92 105 81 18 50 26 177 130 146 170 172 94 110 64 11 151 164 174 144
348 347 351 355 359 2 357 348 355 337 306 347 2 0 323 342 49 1 357 1 359 306 126 118 99 60 119 107 126 168 148 106 133 126 200 84 98 137 176 217 98 121 180 123
350 348 346 349 358 4 2 344 353 354 315 336 12 20 12 1 18 11 330 284 6 359 29 79 92 127 98 96 136 138 135 121 134 133 167 115 131 150 287 92 112 116 95 65
347 352 355 351 355 359 6 342 346 337 291 339 17 23 27 14 8 344 344 39 36 2 21 37 88 117 146 144 112 95 104 72 136 54 80 108 86 74 99 96 121 76 52 83
340 341 344 345 348 349 354 348 351 346 286 292 59 9 8 12 10 8 338 38 355 34 348 3 19 68 343 76 100 116 93 100 106 160 128 111 103 98 117 96 39 24 269 285
332 334 333 335 336 337 341 341 7 356 317 290 73 36 22 5 15 22 35 17 1 338 14 25 53 80 344 63 64 102 36 199 183 118 124 138 154 117 73 343 298 278 274 282
329 331 330 330 335 335 347 312 19 12 6 326 10 31 15 25 32 42 37 34 6 36 50 54 63 61 352 50 246 96 20 12 24 86 66 62 147 103 9 299 284 301 314 306
331 332 330 333 344 9 3 285 34 359 354 315 350 47 20 19 36 46 40 29 20 38 43 69 78 17 318 189 101 74 69 45 18 47 67 357 345 275 313 310 340 3 314 314
331 332 338 347 9 25 50 16 320 348 336 303 332 328 6 350 350 39 35 20 49 25 55 23 50 58 334 335 84 96 64 60 71 60 276 225 52 70 34 2 345 317 294 287
332 335 338 353 20 12 15 359 346 21 316 294 302 94 83 9 359 20 23 358 47 37 47 23 40 34 18 50 67 75 84 95 76 63 33 44 357 310 37 337 314 305 303 310
335 342 7 10 12 343 332 315 341 6 341 333 324 4 57 3 21 9 359 22 53 63 92 57 55 42 59 50 277 198 132 83 38 4 33 22 342 9 20 352 323 304 304 304
13 6 326 353 333 315 331 319 33 254 288 335 323 40 91 101 14 62 345 352 103 99 78 111 142 104 44 54 65 61 67 63 14 14 18 355 336 338 333 328 320 328 343 328
348 340 337 323 334 354 302 297 152 5 247 39 293 44 105 139 328 124 187 245 66 167 115 157 169 113 89 80 76 74 66 53 33 21 15 13 1 353 346 359 352 335 328 333
319 315 307 326 303 297 269 282 91 46 43 343 64 346 352 27 2 18 51 315 268 66 141 190 151 123 107 87 69 57 52 51 53 51 42 29 27 30 8 352 349 345 338 338
314 341 292 317 288 306 283 34 99 32 2 351 342 289 256 288 243 97 119 272 50 214 202 154 63 139 123 114 85 78 64 68 65 49 41 38 44 20 14 4 360 354 357 355
286 321 272 314 22 35 351 342 6 359 15 339 318 300 345 260 210 146 266 75 228 246 207 79 126 130 118 99 102 80 66 64 58 45 38 34 40 22 27 23 18 18 15 16
299 305 310 51 71 262 268 342 306 319 295 288 331 272 321 286 263 131 290 279 249 17 76 126 155 131 116 111 98 78 67 61 53 47 40 37 45 33 36 36 36 39 41 43
271 255 249 181 201 117 5 277 288 307 326 313 232 255 256 198 355 250 257 329 41 74 124 130 143 127 121 113 98 77 72 67 61 57 53 46 53 49 54 50 49 53 53 57
267 220 244 226 90 264 323 305 126 23 225 248 277 322 30 356 330 310 16 351 107 131 141 144 122 123 130 119 105 86 81 76 72 67 64 61 60 58 62 56 55 57 61 62